This is the latest recevied weather packets stored in our database for station/object ANJALA. If no packets are shown the sender has not sent any weather packets the latest 10 day(s).
| Time | Temp. | Humidity | Pressure | Rain* | Wind** | Luminosity | Snow |
|---|---|---|---|---|---|---|---|
| 1777882029 | 13.89° C | 62% | - | 0 mm | - | - | - |
| 1777880829 | 13.33° C | 68% | - | 0 mm | - | - | - |
| 1777879629 | 12.78° C | 69% | - | 0 mm | - | - | - |
| 1777878428 | 12.78° C | 71% | - | 0 mm | - | - | - |
| 1777877229 | 12.22° C | 72% | - | 0 mm | - | - | - |
| 1777876028 | 11.67° C | 75% | - | 0 mm | - | - | - |
| 1777874828 | 11.11° C | 77% | - | 0 mm | - | - | - |
| 1777873628 | 11.11° C | 76% | - | 0 mm | - | - | - |
| 1777872428 | 11.11° C | 75% | - | 0 mm | - | - | - |
| 1777871228 | 10.56° C | 73% | - | 0 mm | - | - | - |
| 1777870028 | 10.56° C | 74% | - | 0 mm | - | - | - |
| 1777868828 | 10.56° C | 71% | - | 0 mm | - | - | - |
| 1777867628 | 9.44° C | 81% | - | 0 mm | - | - | - |
| 1777866428 | 8.89° C | 85% | - | 0 mm | - | - | - |
| 1777865228 | 8.33° C | 85% | - | 0 mm | - | - | - |
| 1777864028 | 8.89° C | 85% | - | 0 mm | - | - | - |
| 1777862828 | 8.89° C | 84% | - | 0 mm | - | - | - |
| 1777861628 | 8.89° C | 85% | - | 0 mm | - | - | - |
| 1777860428 | 8.89° C | 86% | - | 0 mm | - | - | - |
| 1777859228 | 8.89° C | 87% | - | 0 mm | - | - | - |
| 1777858028 | 8.89° C | 87% | - | 0 mm | - | - | - |
| 1777856828 | 9.44° C | 86% | - | 0 mm | - | - | - |
| 1777855628 | 9.44° C | 85% | - | 0 mm | - | - | - |
| 1777854428 | 8.89° C | 88% | - | 0 mm | - | - | - |
| 1777853227 | 8.89° C | 86% | - | 0 mm | - | - | - |
* Rain latest hour (hover to see other rain measurements)
** Current wind speed in m/s (hover to see current wind gust speed)